Greenland, AR

1:26 PM CDT on September 30, 2016 (GMT -0500)
Drake

Weather History for KFYV - May, 2013

Change the Weather History Date:

Tuesday, May 14, 2013

  Actual Average Record
Temperature  
Mean Temperature 73 °F 65 °F  
Max Temperature 86 °F 76 °F 88 °F (1995)
Min Temperature 60 °F 54 °F 37 °F (2000)
Cooling Degree Days 8 2  
Month to date cooling degree days 11 23  
Year to date cooling degree days 40 51  
Growing Degree Days 22 (Base 50)    
Moisture  
Dew Point 52 °F    
Average Humidity 48    
Maximum Humidity 64    
Minimum Humidity 32    
Precipitation  
Precipitation 0.00 in 0.21 in 1.29 in (1956)
Month to date precipitation 2.93 2.75  
Year to date precipitation 18.79 16.92  
Sea Level Pressure  
Sea Level Pressure 30.02 in    
Wind  
Wind Speed 11 mph (SSW)    
Max Wind Speed 21 mph    
Max Gust Speed 29 mph    
Visibility 10 miles    
Events      
T = Trace of Precipitation, MM = Missing Value Source: NWS Daily Summary

Daily Weather History Graph

Daily Weather History Graph

Search for Another Location

Airport or City:

Trip Planner

Search our weather history database for the weather conditions in past years. The results will help you decide how hot, cold, wet, or windy it might be!

Date:

Astronomy

May. 14, 2013 Rise Set
Actual Time 6:11 AM CDT 8:15 PM CDT
Civil Twilight 5:42 AM CDT 8:43 PM CDT
Nautical Twilight 5:08 AM CDT 9:18 PM CDT
Astronomical Twilight 4:31 AM CDT 9:55 PM CDT
Moon 9:51 AM CDT (5/14) No Moon Set
Length of Visible Light 15h 00m
Length of Day
14h 03m
Waxing Crescent, 19% of the Moon is Illuminated
May 14
Waxing Crescent
May 17
First Quarter
May 24
Full
May 31
Last Quarter
Jun 8
New

Hourly Weather History & Observations

Time (CDT) Temp. Heat Index Dew Point Humidity Pressure Visibility Wind Dir Wind Speed Gust Speed Precip Events Conditions
12:53 AM 66.9 °F - 51.1 °F 57% 30.05 in 10.0 mi SSW 8.1 mph - N/A   Clear
1:53 AM 66.9 °F - 48.9 °F 52% 30.04 in 10.0 mi SSW 9.2 mph - N/A   Clear
2:53 AM 64.9 °F - 48.9 °F 56% 30.02 in 10.0 mi SSW 8.1 mph - N/A   Clear
3:53 AM 62.1 °F - 48.9 °F 62% 30.02 in 10.0 mi South 8.1 mph - N/A   Clear
4:53 AM 62.1 °F - 48.0 °F 60% 30.03 in 10.0 mi SSW 8.1 mph - N/A   Clear
5:53 AM 61.0 °F - 48.0 °F 62% 30.04 in 10.0 mi SSW 6.9 mph - N/A   Clear
6:53 AM 62.1 °F - 48.9 °F 62% 30.05 in 10.0 mi SSW 5.8 mph - N/A   Clear
7:53 AM 68.0 °F - 50.0 °F 52% 30.06 in 10.0 mi SW 11.5 mph - N/A   Clear
8:53 AM 72.0 °F - 52.0 °F 49% 30.07 in 10.0 mi SW 8.1 mph 16.1 mph N/A   Clear
9:53 AM 75.0 °F - 53.1 °F 46% 30.07 in 10.0 mi WSW 10.4 mph 19.6 mph N/A   Clear
10:53 AM 77.0 °F - 55.9 °F 48% 30.07 in 10.0 mi SW 13.8 mph 20.7 mph N/A   Clear
11:53 AM 81.0 °F 80.8 °F 55.9 °F 42% 30.06 in 10.0 mi SW 12.7 mph 19.6 mph N/A   Clear
12:53 PM 82.9 °F 82.1 °F 55.9 °F 39% 30.04 in 10.0 mi SW 15.0 mph 23.0 mph N/A   Clear
1:53 PM 84.0 °F - 52.0 °F 33% 30.02 in 10.0 mi SW 13.8 mph 21.9 mph N/A   Clear
2:53 PM 84.9 °F 83.2 °F 53.1 °F 33% 30.00 in 10.0 mi WSW 16.1 mph 27.6 mph N/A   Clear
3:53 PM 84.0 °F 82.5 °F 53.1 °F 34% 29.99 in 10.0 mi SSW 16.1 mph 23.0 mph N/A   Clear
4:53 PM 84.0 °F 82.9 °F 55.0 °F 37% 29.98 in 10.0 mi SSW 13.8 mph 18.4 mph N/A   Clear
5:53 PM 82.9 °F - 50.0 °F 32% 29.98 in 10.0 mi SSW 17.3 mph 24.2 mph N/A   Clear
6:53 PM 80.1 °F - 51.1 °F 36% 29.96 in 10.0 mi South 13.8 mph 23.0 mph N/A   Clear
7:53 PM 75.9 °F - 52.0 °F 43% 29.96 in 10.0 mi SSW 5.8 mph - N/A   Clear
8:53 PM 66.9 °F - 54.0 °F 63% 29.97 in 10.0 mi Calm Calm - N/A   Clear
9:53 PM 72.0 °F - 53.1 °F 51% 29.97 in 10.0 mi South 8.1 mph 17.3 mph N/A   Clear
10:53 PM 71.1 °F - 52.0 °F 51% 29.98 in 10.0 mi SSW 11.5 mph - N/A   Clear
11:53 PM 70.0 °F - 50.0 °F 49% 29.99 in 10.0 mi South 6.9 mph - N/A   Clear